Printer-friendly version

IAU Minor Planet Center

Minor Planet Center

MPEC 2006-B47 : 2006 BB8

The following Minor Planet Electronic Circular may be linked-to from your own Web pages, but must not otherwise be redistributed electronically.


Read MPEC 2006-B46 Read MPEC 2006-B48


M.P.E.C. 2006-B47                                Issued 2006 Jan. 24, 12:50 UT

     The Minor Planet Electronic Circulars contain information on unusual
         minor planets and routine data on comets.  They are published
   on behalf of Commission 20 of the International Astronomical Union by the
          Minor Planet Center, Smithsonian Astrophysical Observatory,
                          Cambridge, MA 02138, U.S.A.

                  Supported in part by the Brinson Foundation
                  Supported in part by the TABASGO Foundation
             Prepared using the Tamkin Foundation Computer Network

                              MPC@CFA.HARVARD.EDU
          URL http://cfa-www.harvard.edu/iau/mpc.html  ISSN 1523-6714

                                   2006 BB8

Observations:
     K06B08B* C2006 01 23.40495 11 10 44.69 +13 58 11.1          20.3 V EB047691
     K06B08B  C2006 01 23.42215 11 10 41.55 +14 00 17.0          20.0 V EB047691
     K06B08B  C2006 01 23.43942 11 10 38.30 +14 02 25.8          19.8 V EB047691
     K06B08B tC2006 01 23.46708 11 10 33.22 +14 05 48.1          19.6 V EB047291
     K06B08B tC2006 01 23.47099 11 10 32.52 +14 06 16.8          20.0 V EB047291
     K06B08B tC2006 01 23.47482 11 10 31.87 +14 06 44.9          20.2 V EB047291
     K06B08B  C2006 01 23.98761 11 09 30.69 +15 06 29.0          19.9 V EB047198
     K06B08B  C2006 01 23.98798 11 09 30.63 +15 06 31.6          19.9 V EB047198
     K06B08B  C2006 01 23.99232 11 09 29.96 +15 07 00.8          20.1 V EB047198
     K06B08B  C2006 01 23.99666 11 09 29.27 +15 07 30.9          20.1 V EB047198
     K06B08B  C2006 01 23.99775 11 09 29.10 +15 07 38.7          20.1 V EB047198
     K06B08B  C2006 01 24.17932 11 09 00.52 +15 27 56.2                 EB047J95
     K06B08B  C2006 01 24.18452 11 08 59.71 +15 28 30.3                 EB047J95
     K06B08B  C2006 01 24.19021 11 08 58.75 +15 29 08.4          19.7 R EB047J95
     K06B08B  C2006 01 24.29270 11 08 52.15 +15 40 44.7          19.6 R EB047734
     K06B08B  C2006 01 24.29736 11 08 51.46 +15 41 12.1          20.4 R EB047734
     K06B08B  C2006 01 24.30202 11 08 50.63 +15 41 46.5          20.1 R EB047734

Observer details:
198 Wildberg.  Observer R. Apitzsch.  0.35-m f/4.2 reflector + CCD.
291 LPL/Spacewatch II.  Observer T. H. Bressi.  1.8-m f/2.7 reflector + CCD.
691 Steward Observatory, Kitt Peak.  Observer T. H. Bressi.  0.9-m f/3
    reflector + CCD.
734 Farpoint Observatory.  Observer D. Tibbets.  Measurer G. Hug.  0.7-m
    reflector + CCD.
J95 Great Shefford.  Observer P. Birtwhistle.  0.40-m f/6.0 Schmidt-Cassegrain
    + CCD.

Orbital elements:
2006 BB8                                                 Earth MOID = 0.0147 AU
Epoch 2006 Mar. 6.0 TT = JDT 2453800.5                  MPC
M  38.56562              (2000.0)            P               Q
n   0.46796258     Peri.  313.13047     +0.25851877     -0.95993646
a   1.6430923      Node   121.58891     +0.91905591     +0.20993956
e   0.4420853      Incl.    7.29208     +0.29749667     +0.18560006
P   2.11           H   24.5           G   0.15           U   8
Residuals in seconds of arc
060123 691  0.2+  0.5+    060123 198  0.4+  0.1-    060124 J95  1.0+  0.5-
060123 691  0.9+  1.2-    060123 198  0.3+  0.1-    060124 J95  0.2+  0.2+
060123 691  0.3+  0.0     060123 198  0.6+  0.8-    060124 734  0.5+  0.7+
060123 291  0.7+  0.5-    060123 198  0.6+  0.7-    060124 734  1.5+  2.7-
060123 291  0.9+  0.3-    060123 198  0.6+  0.4-    060124 734  0.5+  0.9+
060123 291  1.7+  0.1-    060124 J95  0.6+  0.4-

Ephemeris:
2006 BB8                 a,e,i = 1.64, 0.44, 7                   q = 0.9167
Date    TT    R. A. (2000) Decl.     Delta      r     Elong.  Phase     V
2006 01 25    11 07.37   +16 54.8    0.0703   1.041   142.2    35.4    20.3
2006 01 26    11 05.44   +18 27.2    0.0752   1.046   143.9    33.7    20.4
2006 01 27    11 03.63   +19 48.5    0.0801   1.052   145.4    32.1    20.5
2006 01 28    11 01.91   +21 00.4    0.0851   1.057   146.8    30.7    20.6
2006 01 29    11 00.27   +22 04.2    0.0901   1.063   148.1    29.4    20.7
2006 01 30    10 58.69   +23 01.2    0.0952   1.068   149.3    28.1    20.8
2006 01 31    10 57.17   +23 52.3    0.100    1.074   150.4    26.9    20.9
2006 02 01    10 55.70   +24 38.1    0.106    1.079   151.5    25.8    21.0
2006 02 02    10 54.28   +25 19.3    0.111    1.085   152.5    24.8    21.1
2006 02 03    10 52.90   +25 56.5    0.116    1.091   153.4    23.9    21.1
2006 02 04    10 51.55   +26 30.0    0.122    1.097   154.3    23.0    21.2
2006 02 05    10 50.25   +27 00.3    0.127    1.103   155.1    22.1    21.3
2006 02 06    10 48.98   +27 27.7    0.133    1.108   155.8    21.4    21.4
2006 02 07    10 47.74   +27 52.4    0.138    1.114   156.5    20.6    21.5
2006 02 08    10 46.53   +28 14.7    0.144    1.120   157.2    20.0    21.5
2006 02 09    10 45.35   +28 34.8    0.150    1.127   157.7    19.4    21.6
2006 02 10    10 44.20   +28 53.0    0.156    1.133   158.2    18.8    21.7
2006 02 11    10 43.09   +29 09.2    0.161    1.139   158.7    18.4    21.8
2006 02 12    10 42.00   +29 23.8    0.167    1.145   159.1    17.9    21.8
2006 02 13    10 40.94   +29 36.8    0.173    1.151   159.4    17.6    21.9
2006 02 14    10 39.91   +29 48.3    0.179    1.157   159.7    17.2    22.0

Timothy B. Spahr             (C) Copyright 2006 MPC           M.P.E.C. 2006-B47

Read MPEC 2006-B46 Read MPEC 2006-B48


Our Web policy. Index to the CBAT/MPC/ICQ pages.


Valid HTML 4.01!